TimeMST,TemperatureF,Dew PointF,Humidity,Sea Level PressureIn,VisibilityMPH,Wind Direction,Wind SpeedMPH,Gust SpeedMPH,PrecipitationIn,Events,Conditions,WindDirDegrees,DateUTC
12:15 AM,35.6,24.8,65,30.14,10.0,Calm,Calm,-,N/A,,Clear,0,2013-10-12 07:15:00
12:35 AM,35.6,24.8,65,30.14,10.0,Calm,Calm,-,N/A,,Clear,0,2013-10-12 07:35:00
12:55 AM,33.8,24.8,70,30.14,10.0,Calm,Calm,-,N/A,,Clear,0,2013-10-12 07:55:00
1:15 AM,33.8,24.8,70,30.14,10.0,Calm,Calm,-,N/A,,Clear,0,2013-10-12 08:15:00
1:35 AM,32.0,24.8,75,30.14,10.0,Calm,Calm,-,N/A,,Clear,0,2013-10-12 08:35:00
1:55 AM,33.8,24.8,70,30.14,10.0,SSW,3.5,-,N/A,,Clear,200,2013-10-12 08:55:00
2:15 AM,32.0,24.8,75,30.13,10.0,South,5.8,-,N/A,,Clear,170,2013-10-12 09:15:00
2:35 AM,32.0,24.8,75,30.13,10.0,Calm,Calm,-,N/A,,Clear,0,2013-10-12 09:35:00
2:55 AM,32.0,26.6,80,30.13,10.0,South,6.9,-,N/A,,Clear,180,2013-10-12 09:55:00
3:15 AM,32.0,24.8,75,30.12,10.0,SSW,3.5,-,N/A,,Clear,200,2013-10-12 10:15:00
3:35 AM,32.0,24.8,75,30.12,10.0,SSE,5.8,-,N/A,,Clear,160,2013-10-12 10:35:00
3:55 AM,32.0,23.0,69,30.12,10.0,South,3.5,-,N/A,,Clear,190,2013-10-12 10:55:00
4:15 AM,32.0,23.0,69,30.12,10.0,South,4.6,-,N/A,,Clear,190,2013-10-12 11:15:00
4:35 AM,32.0,23.0,69,30.12,10.0,SSE,3.5,-,N/A,,Clear,160,2013-10-12 11:35:00
4:55 AM,32.0,23.0,69,30.13,10.0,SSW,3.5,-,N/A,,Clear,200,2013-10-12 11:55:00
5:15 AM,33.8,23.0,65,30.13,10.0,South,5.8,-,N/A,,Clear,170,2013-10-12 12:15:00
5:35 AM,32.0,23.0,69,30.13,10.0,South,4.6,-,N/A,,Clear,180,2013-10-12 12:35:00
5:55 AM,32.0,24.8,75,30.13,10.0,South,3.5,-,N/A,,Clear,180,2013-10-12 12:55:00
6:15 AM,32.0,24.8,75,30.14,10.0,Calm,Calm,-,N/A,,Clear,0,2013-10-12 13:15:00
6:35 AM,32.0,24.8,75,30.14,10.0,SSE,3.5,-,N/A,,Clear,160,2013-10-12 13:35:00
6:55 AM,33.8,24.8,70,30.15,10.0,South,3.5,-,N/A,,Clear,180,2013-10-12 13:55:00
7:15 AM,35.6,28.4,75,30.15,10.0,Calm,Calm,-,N/A,,Clear,0,2013-10-12 14:15:00
7:35 AM,41.0,28.4,61,30.16,10.0,Calm,Calm,-,N/A,,Clear,0,2013-10-12 14:35:00
7:55 AM,44.6,32.0,61,30.16,10.0,South,3.5,-,N/A,,Clear,170,2013-10-12 14:55:00
8:15 AM,50.0,26.6,40,30.16,10.0,Calm,Calm,-,N/A,,Clear,0,2013-10-12 15:15:00
8:35 AM,51.8,26.6,38,30.17,10.0,SSW,3.5,-,N/A,,Clear,200,2013-10-12 15:35:00
8:55 AM,53.6,26.6,35,30.16,10.0,SW,3.5,-,N/A,,Clear,220,2013-10-12 15:55:00
9:15 AM,55.4,28.4,36,30.16,10.0,South,3.5,-,N/A,,Clear,180,2013-10-12 16:15:00
9:35 AM,57.2,28.4,33,30.16,10.0,SSW,12.7,21.9,N/A,,Clear,200,2013-10-12 16:35:00
9:55 AM,57.2,26.6,31,30.16,10.0,South,13.8,18.4,N/A,,Clear,170,2013-10-12 16:55:00
10:15 AM,59.0,28.4,31,30.16,10.0,South,15.0,-,N/A,,Clear,180,2013-10-12 17:15:00
10:35 AM,59.0,28.4,31,30.16,10.0,South,12.7,-,N/A,,Clear,190,2013-10-12 17:35:00
10:55 AM,60.8,26.6,27,30.16,10.0,SSW,15.0,19.6,N/A,,Clear,210,2013-10-12 17:55:00
11:15 AM,62.6,28.4,27,30.15,10.0,South,16.1,-,N/A,,Clear,180,2013-10-12 18:15:00
11:35 AM,62.6,26.6,26,30.14,10.0,South,16.1,21.9,N/A,,Clear,180,2013-10-12 18:35:00
11:55 AM,62.6,26.6,26,30.14,10.0,SSW,15.0,21.9,N/A,,Clear,200,2013-10-12 18:55:00
12:15 PM,62.6,26.6,26,30.13,10.0,South,18.4,25.3,N/A,,Clear,190,2013-10-12 19:15:00
12:35 PM,62.6,28.4,27,30.12,10.0,South,11.5,19.6,N/A,,Clear,190,2013-10-12 19:35:00
12:55 PM,64.4,26.6,24,30.11,10.0,South,17.3,25.3,N/A,,Clear,170,2013-10-12 19:55:00
1:15 PM,64.4,28.4,26,30.10,10.0,South,15.0,21.9,N/A,,Clear,170,2013-10-12 20:15:00
1:35 PM,64.4,28.4,26,30.10,10.0,South,15.0,23.0,N/A,,Clear,190,2013-10-12 20:35:00
1:55 PM,64.4,28.4,26,30.09,10.0,SSW,13.8,23.0,N/A,,Clear,200,2013-10-12 20:55:00
2:15 PM,64.4,28.4,26,30.09,10.0,South,15.0,20.7,N/A,,Clear,180,2013-10-12 21:15:00
2:35 PM,64.4,28.4,26,30.09,10.0,SSW,18.4,24.2,N/A,,Clear,200,2013-10-12 21:35:00
2:55 PM,64.4,26.6,24,30.08,10.0,SSW,13.8,26.5,N/A,,Clear,200,2013-10-12 21:55:00
3:15 PM,64.4,26.6,24,30.08,10.0,SSW,17.3,23.0,N/A,,Clear,200,2013-10-12 22:15:00
3:35 PM,64.4,26.6,24,30.08,10.0,South,17.3,27.6,N/A,,Clear,180,2013-10-12 22:35:00
3:55 PM,64.4,26.6,24,30.08,10.0,South,16.1,25.3,N/A,,Clear,190,2013-10-12 22:55:00
4:15 PM,64.4,26.6,24,30.08,10.0,SSW,17.3,24.2,N/A,,Clear,210,2013-10-12 23:15:00
4:35 PM,62.6,26.6,26,30.08,10.0,SSW,15.0,21.9,N/A,,Clear,200,2013-10-12 23:35:00
4:55 PM,62.6,26.6,26,30.09,10.0,South,16.1,23.0,N/A,,Clear,190,2013-10-12 23:55:00
5:15 PM,60.8,26.6,27,30.09,10.0,SSW,15.0,-,N/A,,Clear,200,2013-10-13 00:15:00
5:35 PM,59.0,26.6,29,30.09,10.0,SSW,13.8,-,N/A,,Clear,200,2013-10-13 00:35:00
5:55 PM,57.2,26.6,31,30.10,10.0,SSW,9.2,-,N/A,,Clear,200,2013-10-13 00:55:00
6:15 PM,55.4,26.6,33,30.10,10.0,SW,4.6,-,N/A,,Clear,220,2013-10-13 01:15:00
6:35 PM,53.6,26.6,35,30.10,10.0,SSW,3.5,-,N/A,,Clear,200,2013-10-13 01:35:00
6:55 PM,51.8,28.4,41,30.11,10.0,SSE,4.6,-,N/A,,Clear,150,2013-10-13 01:55:00
7:15 PM,48.2,30.2,50,30.11,10.0,SSE,6.9,-,N/A,,Clear,150,2013-10-13 02:15:00
7:35 PM,48.2,28.4,46,30.11,10.0,SE,4.6,-,N/A,,Clear,140,2013-10-13 02:35:00
7:55 PM,46.4,30.2,53,30.12,10.0,SSE,5.8,-,N/A,,Clear,150,2013-10-13 02:55:00
8:15 PM,46.4,30.2,53,30.12,10.0,SE,6.9,-,N/A,,Clear,140,2013-10-13 03:15:00
8:35 PM,44.6,30.2,57,30.12,9.0,SSE,8.1,-,N/A,,Clear,160,2013-10-13 03:35:00
8:55 PM,46.4,30.2,53,30.12,10.0,South,9.2,-,N/A,,Clear,170,2013-10-13 03:55:00
9:15 PM,46.4,30.2,53,30.12,10.0,South,9.2,-,N/A,,Clear,170,2013-10-13 04:15:00
9:35 PM,46.4,28.4,50,30.12,10.0,South,9.2,-,N/A,,Clear,170,2013-10-13 04:35:00
9:55 PM,48.2,28.4,46,30.12,10.0,South,8.1,-,N/A,,Clear,180,2013-10-13 04:55:00
10:15 PM,48.2,28.4,46,30.12,10.0,South,8.1,-,N/A,,Clear,180,2013-10-13 05:15:00
10:35 PM,46.4,28.4,50,30.12,10.0,SSW,6.9,-,N/A,,Clear,200,2013-10-13 05:35:00
10:55 PM,44.6,30.2,57,30.12,10.0,SSW,4.6,-,N/A,,Clear,200,2013-10-13 05:55:00
11:15 PM,44.6,28.4,53,30.13,10.0,South,8.1,-,N/A,,Clear,170,2013-10-13 06:15:00
11:35 PM,44.6,28.4,53,30.13,10.0,South,8.1,-,N/A,,Clear,170,2013-10-13 06:35:00
11:55 PM,44.6,28.4,53,30.13,10.0,South,8.1,-,N/A,,Clear,170,2013-10-13 06:55:00